Airfield :
LOGIN :

Register | Disclaimer

   EN    FR    IT 

 










Legend :    VFR   Marginal VFR   IFR   Intensive IFR   Very Intensive IFR
Visi :
Ceiling :
>= 8 km
>= 3000ft
5 to 8 km
1000 to 3000 ft
1500m to 5 km
500 to 1000 ft
800 to 1500m
200 to 500 ft
< 800m
< 200 ft
Symbols :   Thunderstorms  Fog  Heavy snow  Heavy precipitations  Wind > 20 kt
SIGMETs :     Misc.  Thunderstorms  Icing  Turbulence  Mountain Waves  Volcanic Ashes






- Airport Elevation : 255 ft


ENGC - Gullfaks C oil platform

CURRENT METAR :
  • 170250Z 34005KT 310V010 9999 FEW030 BKN100 07/00 Q1013 W08/S4

EXPIRED METARs :
  • 170150Z 35007KT 9999 FEW030 BKN100 07/00 Q1013 W08/S4
  • 170050Z 33012KT 9999 FEW028 BKN040 BKN100 06/01 Q1013 W09/S4

TAF TAF ENGC
Valid from the 17 at 03:00 until the 18 at 03:00 UTC


1703/1803 33010KT 9999 SCT035
BECMG 1704/1706 03008KT



MET'MAP, your aeronautical weather chart ! - Copyright ORBIFLY December 2007 - Disclaimer

ORBIFLY MET'MAP TEAM :

Programming & Development : Alexandra Zaïnal
Concept & original design : Baudouin d'Aumeries
Assistance for programming : Marc-Olivier Méhu
Technical & hardware support : Manuel Goepfert

Contact : metmap@orbifly.com




SOURCES & CREDITS :

   NOAA